When you browse on this site, cookies collect data to enhance your experience and personalize the content and advertising you see.
Visit our Privacy Policy to learn more. By continuing to use the site, you agree to this use of cookies and data.
  • In Czech Republic
  • List of Countries
  • For 7 days
  • Water Temperature
  • Weather Map
  • Weather Widgets
  • user-avatar
    Login

    Hourly Weather Durres

    Today, 26 August, Monday

    Time Temperature Precipitation Wind Pressure Humidity
    00:00 +27°C° 0 mm 3 mps 760 mmHg 63%
    01:00 +26°C° 0 mm 3 mps 760 mmHg 64%
    02:00 +26°C° 0 mm 2 mps 760 mmHg 63%
    03:00 +25°C° 0 mm 2 mps 760 mmHg 62%
    04:00 +25°C° 0 mm 2 mps 760 mmHg 60%
    05:00 +26°C° 0 mm 2 mps 760 mmHg 55%
    06:00 +28°C° 0 mm 2 mps 760 mmHg 50%
    07:00 +29°C° 0 mm 2 mps 760 mmHg 44%
    08:00 +32°C° 0 mm 2 mps 760 mmHg 38%
    09:00 +35°C° 0 mm 3 mps 760 mmHg 31%
    10:00 +38°C° 0 mm 3 mps 761 mmHg 25%
    11:00 +38°C° 0 mm 4 mps 760 mmHg 26%
    12:00 +39°C° 0 mm 5 mps 760 mmHg 26%
    13:00 +39°C° 0 mm 6 mps 760 mmHg 27%
    14:00 +39°C° 0 mm 5 mps 760 mmHg 28%
    15:00 +39°C° 0 mm 5 mps 760 mmHg 28%
    16:00 +37°C° 0 mm 4 mps 760 mmHg 29%
    17:00 +35°C° 0 mm 4 mps 760 mmHg 35%
    18:00 +32°C° 0 mm 5 mps 760 mmHg 42%
    19:00 +29°C° 0 mm 5 mps 760 mmHg 48%
    20:00 +29°C° 0 mm 4 mps 760 mmHg 48%
    21:00 +28°C° 0 mm 4 mps 761 mmHg 47%
    22:00 +28°C° 0 mm 4 mps 761 mmHg 47%
    23:00 +28°C° 0 mm 3 mps 761 mmHg 46%

    Tomorrow, 27 August, Tuesday

    Time Temperature Precipitation Wind Pressure Humidity
    00:00 +28°C° 0 mm 3 mps 761 mmHg 45%
    01:00 +28°C° 0 mm 3 mps 761 mmHg 43%
    02:00 +27°C° 0 mm 3 mps 760 mmHg 43%
    03:00 +27°C° 0 mm 2 mps 760 mmHg 43%
    04:00 +27°C° 0 mm 2 mps 760 mmHg 42%
    05:00 +28°C° 0 mm 3 mps 760 mmHg 39%
    06:00 +30°C° 0 mm 3 mps 761 mmHg 35%
    07:00 +31°C° 0 mm 3 mps 761 mmHg 32%
    08:00 +34°C° 0 mm 3 mps 761 mmHg 28%
    09:00 +37°C° 0 mm 3 mps 761 mmHg 24%
    10:00 +39°C° 0 mm 3 mps 761 mmHg 21%
    11:00 +39°C° 0 mm 3 mps 761 mmHg 21%
    12:00 +40°C° 0 mm 4 mps 761 mmHg 22%
    13:00 +40°C° 0 mm 5 mps 761 mmHg 23%
    14:00 +37°C° 0 mm 5 mps 761 mmHg 27%
    15:00 +36°C° 0 mm 5 mps 761 mmHg 30%
    16:00 +34°C° 0 mm 4 mps 761 mmHg 34%
    17:00 +33°C° 0 mm 4 mps 761 mmHg 39%
    18:00 +30°C° 0 mm 4 mps 761 mmHg 45%
    19:00 +29°C° 0 mm 3 mps 761 mmHg 50%
    20:00 +28°C° 0 mm 3 mps 761 mmHg 50%
    21:00 +28°C° 0 mm 2 mps 761 mmHg 51%
    22:00 +27°C° 0 mm 2 mps 762 mmHg 51%
    23:00 +27°C° 0 mm 2 mps 761 mmHg 51%

    Day after tomorrow, 28 August, Wednesday

    Time Temperature Precipitation Wind Pressure Humidity
    00:00 +26°C° 0 mm 2 mps 761 mmHg 50%
    01:00 +26°C° 0 mm 2 mps 761 mmHg 49%
    02:00 +26°C° 0 mm 2 mps 761 mmHg 48%
    03:00 +26°C° 0 mm 2 mps 761 mmHg 48%
    04:00 +25°C° 0 mm 3 mps 760 mmHg 47%
    05:00 +27°C° 0 mm 2 mps 760 mmHg 44%
    06:00 +28°C° 0 mm 2 mps 761 mmHg 40%
    07:00 +30°C° 0 mm 1 mps 761 mmHg 36%
    08:00 +32°C° 0 mm 1 mps 761 mmHg 32%
    09:00 +35°C° 0 mm 2 mps 760 mmHg 28%
    10:00 +37°C° 0 mm 2 mps 760 mmHg 24%
    11:00 +38°C° 0 mm 3 mps 760 mmHg 24%
    12:00 +38°C° 0 mm 4 mps 760 mmHg 25%
    13:00 +39°C° 0 mm 5 mps 760 mmHg 25%
    14:00 +37°C° 0 mm 5 mps 760 mmHg 28%
    15:00 +36°C° 0 mm 5 mps 759 mmHg 32%
    16:00 +35°C° 0 mm 5 mps 759 mmHg 35%
    17:00 +33°C° 0 mm 4 mps 759 mmHg 40%
    18:00 +31°C° 0 mm 3 mps 759 mmHg 44%
    19:00 +29°C° 0 mm 2 mps 759 mmHg 49%
    20:00 +29°C° 0 mm 2 mps 759 mmHg 50%
    21:00 +28°C° 0 mm 2 mps 760 mmHg 51%
    22:00 +27°C° 0 mm 2 mps 760 mmHg 52%
    23:00 +27°C° 0 mm 2 mps 760 mmHg 54%

    29 August, Thursday

    Time Temperature Precipitation Wind Pressure Humidity
    00:00 +26°C° 0 mm 2 mps 760 mmHg 55%
    01:00 +26°C° 0 mm 2 mps 759 mmHg 56%
    02:00 +26°C° 0 mm 2 mps 759 mmHg 57%
    03:00 +25°C° 0 mm 3 mps 759 mmHg 58%
    04:00 +25°C° 0 mm 3 mps 759 mmHg 58%
    05:00 +26°C° 0 mm 2 mps 759 mmHg 52%
    06:00 +28°C° 0 mm 2 mps 759 mmHg 47%
    07:00 +29°C° 0 mm 2 mps 759 mmHg 41%
    08:00 +32°C° 0 mm 2 mps 759 mmHg 36%
    09:00 +34°C° 0 mm 1 mps 759 mmHg 32%
    10:00 +36°C° 0 mm 1 mps 759 mmHg 27%
    11:00 +37°C° 0 mm 3 mps 759 mmHg 27%
    12:00 +37°C° 0 mm 4 mps 759 mmHg 27%
    13:00 +39°C° 0 mm 5 mps 759 mmHg 27%
    14:00 +38°C° 0 mm 6 mps 758 mmHg 29%
    15:00 +36°C° 0 mm 6 mps 758 mmHg 31%
    16:00 +35°C° 0 mm 6 mps 758 mmHg 33%
    17:00 +33°C° 0 mm 5 mps 758 mmHg 42%
    18:00 +29°C° 0 mm 4 mps 758 mmHg 51%
    19:00 +27°C° 0 mm 3 mps 758 mmHg 60%
    20:00 +27°C° 0 mm 2 mps 758 mmHg 61%
    21:00 +26°C° 0 mm 2 mps 759 mmHg 62%
    22:00 +25°C° 0 mm 2 mps 759 mmHg 64%
    23:00 +25°C° 0 mm 2 mps 759 mmHg 64%

    30 August, Friday

    Time Temperature Precipitation Wind Pressure Humidity
    00:00 +25°C° 0 mm 2 mps 759 mmHg 65%
    01:00 +24°C° 0 mm 3 mps 759 mmHg 65%
    02:00 +24°C° 0 mm 3 mps 759 mmHg 65%
    03:00 +24°C° 0 mm 3 mps 759 mmHg 65%
    04:00 +24°C° 0 mm 3 mps 759 mmHg 64%
    05:00 +25°C° 0 mm 2 mps 759 mmHg 57%
    06:00 +27°C° 0 mm 2 mps 759 mmHg 50%
    07:00 +28°C° 0 mm 2 mps 759 mmHg 43%
    08:00 +31°C° 0 mm 2 mps 759 mmHg 37%
    09:00 +34°C° 0 mm 2 mps 760 mmHg 31%
    10:00 +36°C° 0 mm 2 mps 760 mmHg 25%
    11:00 +37°C° 0 mm 2 mps 759 mmHg 26%
    12:00 +37°C° 0 mm 3 mps 759 mmHg 28%
    13:00 +37°C° 0 mm 4 mps 759 mmHg 29%
    14:00 +37°C° 0 mm 5 mps 759 mmHg 30%
    15:00 +36°C° 0 mm 5 mps 758 mmHg 31%
    16:00 +35°C° 0 mm 5 mps 758 mmHg 32%
    17:00 +32°C° 0 mm 4 mps 758 mmHg 43%
    18:00 +29°C° 0 mm 4 mps 758 mmHg 55%
    19:00 +27°C° 0 mm 3 mps 759 mmHg 66%
    20:00 +26°C° 0 mm 2 mps 759 mmHg 65%
    21:00 +26°C° 0 mm 1 mps 759 mmHg 63%
    22:00 +26°C° 0 mm 1 mps 759 mmHg 62%
    23:00 +25°C° 0 mm 1 mps 759 mmHg 59%

    31 August, Saturday

    Time Temperature Precipitation Wind Pressure Humidity
    00:00 +25°C° 0 mm 1 mps 759 mmHg 57%
    01:00 +25°C° 0 mm 2 mps 759 mmHg 55%
    02:00 +24°C° 0 mm 2 mps 759 mmHg 52%
    03:00 +24°C° 0 mm 2 mps 759 mmHg 49%
    04:00 +24°C° 0 mm 1 mps 759 mmHg 47%
    05:00 +25°C° 0 mm 2 mps 759 mmHg 42%
    06:00 +27°C° 0 mm 2 mps 759 mmHg 36%
    07:00 +29°C° 0 mm 3 mps 759 mmHg 31%
    08:00 +31°C° 0 mm 3 mps 759 mmHg 28%
    09:00 +34°C° 0 mm 2 mps 760 mmHg 24%
    10:00 +37°C° 0 mm 2 mps 760 mmHg 21%
    11:00 +37°C° 0 mm 3 mps 759 mmHg 24%
    12:00 +36°C° 0 mm 3 mps 759 mmHg 28%
    13:00 +36°C° 0 mm 4 mps 759 mmHg 31%
    14:00 +36°C° 0 mm 3 mps 759 mmHg 34%
    15:00 +35°C° 0 mm 3 mps 758 mmHg 36%
    16:00 +34°C° 0 mm 3 mps 758 mmHg 38%
    17:00 +31°C° 0 mm 2 mps 758 mmHg 47%
    18:00 +29°C° 0 mm 1 mps 759 mmHg 57%
    19:00 +26°C° 0 mm 1 mps 759 mmHg 66%
    20:00 +26°C° 0 mm 1 mps 759 mmHg 66%
    21:00 +26°C° 0 mm 1 mps 759 mmHg 66%
    22:00 +25°C° 0 mm 1 mps 760 mmHg 67%
    23:00 +25°C° 0 mm 1 mps 760 mmHg 65%
    Show more